www.pogodaiklimat.ru

Погода и климат >> Архив погоды >> Аргентина >> Trelew


ПОГОДА в Trelew

  • Прогноз погоды в Trelew
  • Монитор погоды в Trelew
  • Климат города

АРХИВ ПОГОДЫ в Trelew

Время (UTC), дата Ветер
(напр.,м/с)
 
Видим.   Явления Облачность Т
(С)
Тd
(С)
f
(%)
Тe
(С)
Тes
(С)
Комфортность P
(гПа)
Po
(гПа)
Тmin
(С)
Tmax
(С)
R
(мм)
R24
(мм)
S
(см)
00 14.09 СЗ 5 30 км 5/0
[Ac lent Cs]
+16.4 -2.7 27 +16 +16 1013.3 1008.1 +8.0 +22.5
03 14.09 З 4 30 км 4/0
[Cs]
+10.6 -0.2 47 +9 +9 1014.0 1008.9
06 14.09 СЗ 4 30 км 4/0
[Cs]
+10.4 -0.9 45 +8 +8 1014.0 1008.9
09 14.09 СЗ 3 30 км 4/0
[Ac As Ci sp]
+8.8 -0.9 51 +7 +7 1012.7 1007.6
12 14.09 СЗ 3 30 км 5/0
[Ac lent Cs]
+11.2 +0.7 48 +10 +11 1012.6 1007.4 +4.5 +16.5
15 14.09 З 4 30 км 4/0
[Cs]
+21.2 +0.7 26 +21 +28 комфорт 1010.4 1005.3
18 14.09 З 5 30 км 4/0
[Ac lent Cs]
+26.4 -2.5 15 +24 +28 комфорт 1007.3 1002.3
21 14.09 ЮЗ 2 30 км 1/0
[Ac lent Cs]
+27.2 -1.3 15 +25 +26 комфорт 1005.7 1000.7
00 15.09 Ю 2 30 км 3/0
[Ac As]
+16.4 +2.3 39 +17 +17 1007.9 1002.8 +11.2 +28.2
03 15.09 З 3 30 км ясно +14.4 +1.0 40 +14 +14 1009.9 1004.8
06 15.09 З 4 30 км ясно +11.0 +2.2 55 +9 +9 1010.5 1005.4
09 15.09 З 1 30 км 4/0
[Ac As Cs]
+9.0 -0.6 51 +9 +9 1013.8 1008.6
12 15.09 ЮЗ 3 30 км 6/0
[Ac As Cs]
+12.0 -3.8 33 +11 +12 1016.8 1011.6 +8.0 +17.0
15 15.09 Ю 4 30 км 6/0
[Cs]
+15.8 +2.6 41 +15 +21 1017.6 1012.4
18 15.09 В 6 30 км 9/0
[Ac lent Cs]
+14.0 +1.1 41 +12 +14 1016.6 1011.4
21 15.09 В 8 30 км 9/0
[Ac lent Cs]
+11.4 +1.6 51 +8 +8 1017.0 1011.8
00 16.09 В 4 30 км 4/0
[Ac lent Ci fib]
+8.8 +4.8 76 +6 +6 1017.3 1012.1 +8.6 +17.0
03 16.09 штиль 0 8000 м дымка 5/0
[Ac lent Ci fib]
+5.9 +4.3 89 +5 +5 1016.5 1011.3
06 16.09 В 2 30 км 3/0
[Cs]
+3.0 +2.5 97 0 0 1015.2 1009.9
09 16.09 штиль 0 300 м туман ?/? +2.6 +2.1 97 +1 +1 1013.6 1008.2
12 16.09 штиль 0 100 м туман ?/? +6.0 +5.1 94 +5 +5 1013.1 1007.8 +2.0 +9.0
15 16.09 С 2 30 км 4/1 1050 м
[Sc Ci fib]
+18.8 +2.5 34 +20 +28 1010.5 1005.3
18 16.09 С 9 30 км 8/0
[]
+22.4 +0.1 23 +22 +22 комфорт 1006.8 1001.7
21 16.09 С 8 20 км осадки на расстоянии 9/4 750 м
[Frnb Ac As Cs]
+22.4 +1.6 25 +22 +22 комфорт 1005.1 1000.0
00 17.09 С 3 30 км 9/0
[Ac As Cs]
+19.0 +2.2 33 +19 +19 1005.3 1000.2 +6.0 +24.0
03 17.09 С 6 30 км 9/0
[Ac As Cs]
+16.4 +5.2 47 +15 +15 1005.1 1000.1
06 17.09 СЗ 6 30 км 4/0
[Ac As Ci sp]
+15.4 +2.6 42 +14 +14 1005.9 1000.9
09 17.09 СЗ 6 30 км 1/0
[Ci sp]
+13.0 +0.8 43 +11 +11 1005.9 1000.9
12 17.09 З 10 30 км ясно +14.4 +0.4 38 +12 +12 1007.3 1002.2 +9.2 +19.8
15 17.09 З 10 30 км ясно +20.2 -0.6 25 +19 +20 1007.4 1002.4
18 17.09 З 8 30 км 3/1 1050 м
[Cu hum Ci sp]
+21.2 -1.7 21 +21 +22 комфорт 1005.8 1000.8
21 17.09 З 5 30 км 4/3 1050 м
[Cu med, cong Ci sp]
+21.0 -3.0 20 +21 +21 комфорт 1005.0 999.8
00 18.09 штиль 0 30 км 3/3 1050 м
[Cu hum Cs]
+16.0 +1.0 36 +16 +16 1006.4 1001.3 +14.3 +23.0
03 18.09 СЗ 2 30 км 3/0
[Ci sp]
+8.2 -3.2 44 +7 +7 1006.5 1001.4
06 18.09 СЗ 2 30 км 4/0
[Cs]
+7.4 -3.7 45 +6 +6 1005.8 1000.6
09 18.09 ЮЗ 3 30 км 10/0 2000 м
[Ac As Cs]
+8.2 -3.2 44 +6 +6 1004.4 999.3
12 18.09 В 2 30 км 10/0 2000 м
[Ac As Cs]
+9.4 -3.6 40 +8 +9 1005.1 999.8 +6.0 +16.0
15 18.09 СЗ 3 25 км слабый дождь 10/4 450 м
[Sc As op Cs]
+13.0 -1.3 37 +12 +15 1004.6 999.4
18 18.09 З 2 20 км в посл. час дождь 10/4 900 м
[Sc As op Cs]
+12.0 +7.1 72 +11 +14 1001.6 996.4 1
21 18.09 ЮЗ 6 30 км 10/3 900 м
[Sc As op Cs]
+11.8 +5.4 65 +9 +9 1000.8 995.6
00 19.09 ЮЗ 7 8000 м сильный дождь 10/6 750 м
[Sc As op]
+8.6 +7.3 92 +4 +4 1003.5 998.2 +8.2 +14.0 3
03 19.09 З 3 20 км слабый дождь 10/6 750 м
[Sc As op]
+8.2 +7.4 95 +5 +5 1003.6 998.4
06 19.09 З 2 30 км {дождь} 8/4 900 м
[Sc As op Cs]
+7.0 +5.7 91 +5 +5 1003.0 997.8 1
09 19.09 З 4 30 км 4/3 1050 м
[Sc Ac As]
+5.8 +4.4 91 +2 +2 1003.9 998.7
12 19.09 З 2 30 км 8/6 600 м
[Sc Ac As Ci sp]
+6.0 +4.6 91 +3 +4 1007.2 1002.0 +4.8 +9.0 6
15 19.09 ЮЗ 7 30 км 8/8 900 м
[Sc Ac As Ci sp]
+10.2 +4.9 70 +7 +7 1008.4 1003.2
18 19.09 З 8 30 км 8/8 1020 м
[Cu Sc]
+13.6 +1.7 44 +11 +12 1007.9 1002.6
21 19.09 ЮЗ 6 30 км 4/3 1020 м
[Cu hum Ci fib]
+14.8 +0.4 37 +13 +14 1008.3 1003.0
00 20.09 В 4 14 км дымка 5/5 600 м
[Sc]
+7.6 +5.8 88 +4 +4 1010.6 1005.3 +5.8 +15.4
03 20.09 С 2 25 км 4/3 750 м
[Sc Ci fib]
+5.4 +4.5 94 +3 +3 1011.0 1005.7
06 20.09 В 2 25 км 4/1 750 м
[Sc Ci fib]
+3.8 +2.8 93 +1 +1 1008.9 1003.7
09 20.09 СЗ 5 2800 м 5/0 2000 м
[Ac As Ci sp]
+7.0 +6.6 97 +3 +3 1007.2 1002.0
12 20.09 С 3 30 км 8/0
[Ac lent Cs]
+8.2 +5.6 84 +5 +7 1006.0 1000.8 +3.0 +8.8
15 20.09 З 6 30 км 9/0
[Cs]
+14.6 +3.2 46 +13 +16 1004.4 999.2
18 20.09 СЗ 6 30 км 9/3 1050 м
[Sc diur, vesp Cs]
+16.6 +1.7 37 +16 +18 1002.4 997.2

 

Местоположение метеостанции Trelew (Аргентина): широта -43.20 долгота -65.26 высота над уровнем моря 43 м.

В архиве по умолчанию представлена погода в Trelew за последнюю неделю. Архивные данные за месяц целиком и за предыдущие месяцы, начиная с января 2011 года, Вы можете получить, выбрав интересующий диапазон дат из раскрывающегося списка и нажав кнопку "Ввод!".


*Определитесь, кто Вы:
робот инопланетянин человек

Внимание! Время в таблицах - всемирное. Для получения местного времени необходимо прибавить поправку, которая в Trelew равна -3 ч.

Смотрите также архив погоды в соседних городах и на ближайших метеорологических станциях:

Погода в San Antonio Oeste (Аргентина) (270 км)
Погода в Viedma (Аргентина) (321 км)
Погода в Comodoro Rivadavia (Аргентина) (338 км)
Погода в Maquinchao (Аргентина) (359 км)
Погода в Esquel (Аргентина) (479 км)
Погода в Alto Palena (Чили) (529 км)
Погода в Neuquen (Аргентина) (530 км)
Погода в El Bolson (Аргентина) (530 км)
Погода в Futaleufu (Чили) (531 км)
Погода в San Carlos de Bariloche (Аргентина) (537 км)

Пояснения к столбцам:

Ветер - указаны скорость ветра в м/с - средняя за 10 мин, порывы в срок и между сроками (в фигурных скобках) и направление, откуда дует ветер: С - северный, СВ - северо-восточный, В - восточный, ЮВ - юго-восточный, Ю - южный, ЮЗ - юго-западный, З - западный, СЗ - северо-западный.
Видимость - горизонтальная дальность видимости в метрах или километрах. При видимости от 1 до 10 км при отсутствии осадков обычно наблюдается дымка, при ухудшении видимости до 1 км и менее - туман. В сухую погоду видимость может ухудшаться дымом, пылью или мглою.
Явления - указаны атмосферные явления, наблюдавшиеся в срок или в последний час перед сроком; фигурными скобками обозначены явления, наблюдавшиеся между сроками (за 1-3 часа до срока); квадратными скобками обозначены град или гололедные отложения с указанием их диаметра в мм.
Облачность - указаны через наклонную черту общая и нижняя облачность в баллах и высота нижней границы облаков в метрах; квадратными скобками обозначены формы облаков: Ci - перистые, Cs - перисто-слоистые, Cc - перисто-кучевые, Ac - высококучевые, As - высокослоистые, Sc - слоисто-кучевые, Ns - слоисто-дождевые, Cu - кучевые, Cb - кучево-дождевые. Подробнее классификацию облаков см. в Атласе облаков (PDF).
T - Температура воздуха - температура, измеренная на высоте 2 м над землей.
Td - Температура точки росы - температура, при понижении до которой содержащийся в воздухе водяной пар достигнет насыщения.
f - Относительная влажность воздуха - влажноcть воздуха, измеренная на высоте 2 м над землей.
Te - Эффективная температура - температура, которую ощущает одетый по сезону человек в тени. Характеристика душности погоды. При расчете учитывается влияние влажности воздуха и скорости ветра на теплоощущения человека.
Tes - Эффективная температура на солнце - температура, которую ощущает человек, с поправкой на солнечный нагрев. Характеристика знойности погоды. Зависит от высоты солнца над горизонтом, облачности и скорости ветра. Ночью, в пасмурную погоду, а также при ветре 12 м/с и более поправка равна нулю.
P - Атмосферное давление - приведенное к уровню моря атмосферное давление.
Po - Атмосферное давление - измеренное на уровне метеостанции атмосферное давление.
Tmin - Минимальная температура - минимум температуры воздуха на высоте 2 м над землей.
Tmax - Максимальная температура - максимум температуры воздуха на высоте 2 м над землей.
R - Количество осадков - Количество выпавших осадков за период времени, мм. При наведении курсора мыши на число - период времени, за который выпало указанное количество осадков.
R24 - Количество осадков - Количество выпавших осадков за 24 часа, мм.
S - Снежный покров - Высота снежного покрова, см. При наведении курсора мыши на число - состояние снежного покрова и степень покрытия местности в баллах.